Regional Weather Roundup
Issued by NWS Sterling, VA

Home | Current Version | Previous Version | Graphics & Text | Print | Product List | Glossary On
Versions: 1 2 3 4 5 6 7 8 9 10 11 12 13 14 15 16 17 18 19 20 21 22 23 24 25 26 27 28 29 30 31 32 33 34 35 36 37 38 39 40 41 42 43 44 45 46 47 48 49 50
000
ASUS41 KLWX 261911
RWRLWX

REGIONAL WEATHER ROUNDUP
NATIONAL WEATHER SERVICE BALTIMORE MD/WASHINGTON DC
300 PM EDT SAT MAY 26 2018

Note: "FAIR" indicates few or no clouds below 12,000 feet
with no significant weather and/or obstructions to visibility.
 TC=TEMPERATURE CELSIUS

 * =Non NWS site. Station does not report precipitation (e.g. rain,
    snow, etc.), thunder, or fog.

DCZ001-MDZ009-015-VAZ040>042-051-053>054-262000-
WASHINGTON METRO

CITY           SKY/WX    TMP DP  RH WIND       PRES   REMARKS
WASHINGTON NAT PTSUNNY   85  69  58 S13       29.82F THUNDER
DULLES         PTSUNNY   83  72  69 SW6       29.83F
ANDREWS AFB    FAIR      88  70  55 S8        29.82F HX  92
FT BELVOIR     FAIR      88  69  53 SE9       29.83F HX  92
QUANTICO       FAIR      83  74  74 S13       29.84F
COLLEGE PARK*  CLOUDY    76  69  78 S7        29.83S VSB 1
LEESBURG*      PTSUNNY   90  70  51 CALM      29.84F HX  95
MANASSAS*      FAIR      85  71  63 S5        29.84F HX  90
GAITHERSBURG*  FAIR      91  67  44 W9        29.84F HX  94

$$

MDZ006>007-011-014-262000-
BALTIMORE METRO

CITY           SKY/WX    TMP DP  RH WIND       PRES   REMARKS
BWI AIRPORT    PTSUNNY   90  70  51 S9        29.80F HX  95
MD SCIENCE CTR   N/A     95  66  38 MISG      29.80F HX  98
MARTIN STATE   PTSUNNY   84  75  74 SE16      29.83F HX  92
ANNAPOLIS      FAIR     N/A N/A N/A SE13      29.81F
FORT MEADE*    PTSUNNY   84  72  65 S6        29.84F

$$

MDZ012-015-019>023-262000-
MARYLAND EASTERN SHORE

CITY           SKY/WX    TMP DP  RH WIND       PRES   REMARKS
OCEAN CITY     FAIR      79  72  79 S10G17    29.86F
SALISBURY      FAIR      87  71  58 W15       29.85F HX  93
BAY BRIDGE AP* FAIR      90  72  55 S10       29.82F HX  96
CAMBRIDGE*     MOSUNNY   86  72  62 S8        29.85S HX  92
EASTON*        MOSUNNY   88  70  55 SW13      29.88F HX  92

$$

MDZ017>025-262000-
SOUTHERN MARYLAND

CITY           SKY/WX    TMP DP  RH WIND       PRES   REMARKS
PATUXENT RIVER FAIR      91  69  48 SW10G20   29.84F HX  96
ST INIGOES     FAIR      88  73  61 SW10      29.84F HX  95
LEONARDTOWN*   FAIR      86  70  58 W9G17     29.86F HX  90

$$

MDZ003>005-262000-
NORTH CENTRAL MARYLAND

CITY           SKY/WX    TMP DP  RH WIND       PRES   REMARKS
FREDERICK*     PTSUNNY   90  64  43 S3        29.85F HX  91
HAGERSTOWN APT FAIR      90  64  42 SW9       29.82F HX  91
WESTMINSTER*   FAIR      91  64  40 W6        29.84F HX  93

$$

MDZ501>502-262000-
WESTERN MARYLAND

CITY           SKY/WX    TMP DP  RH WIND       PRES   REMARKS
OAKLAND*       FAIR      77  57  50 CALM      29.95F
CUMBERLAND*    FAIR      88  59  37 W5        29.85F

$$

VAZ025>031-262000-
SHENANDOAH VALLEY

CITY           SKY/WX    TMP DP  RH WIND       PRES   REMARKS
WINCHESTER*    FAIR      86  68  54 E5        29.86F
FRONT ROYAL*   PTSUNNY   84  70  61 SE6       29.83F
LURAY*         RAIN      79  70  73 SE5       29.86S
NEW MARKET*    PTSUNNY   79  70  73 W5        29.84F
STAUNTON*      FAIR      84  67  57 S12       29.90F
WAYNESBORO*    FAIR      81  69  66 S8        29.91S

$$

WVZ021-048>050-054>055-262000-
EASTERN WEST VIRGINIA PANHANDLE

CITY           SKY/WX    TMP DP  RH WIND       PRES   REMARKS
MARTINSBURG    FAIR      87  69  54 S8        29.82F HX  91
PETERSBURG*    PTSUNNY   82  69  65 S9G20     29.85R

$$

VAZ036>039-050-262000-
CENTRAL FOOTHILLS

CITY           SKY/WX    TMP DP  RH WIND       PRES   REMARKS
CHARLOTTESVILL FAIR      88  69  53 S13       29.86F HX  92
CULPEPER*      FAIR      87  69  56 S8        29.85S HX  91
ORANGE*        FAIR      84  70  61 S10       29.86S
GORDONSVILLE*  FAIR      85  72  65 S10       29.85F HX  91
WARRENTON*     PTSUNNY   86  68  54 S3        29.85R

$$

VAZ055>057-262000-
NORTH AND CENTRAL PIEDMONT

CITY           SKY/WX    TMP DP  RH WIND       PRES   REMARKS
FREDERICKSBRG* FAIR      87  70  57 SW7       29.84S HX  92
STAFFORD*      FAIR      87  73  61 SW8       29.88F HX  94

$$

NCZ024-NYZ072-PAZ021-071-VAZ022-071-262000-
OTHER REGIONAL OBSERVATIONS

CITY           SKY/WX    TMP DP  RH WIND       PRES   REMARKS
NEW YORK CITY  FAIR      87  63  44 VRB3      29.81S
PHILADELPHIA   PTSUNNY   89  68  49 SW13      29.80F HX  93
PITTSBURGH     CLOUDY    82  59  45 W3        29.86F
ROANOKE        RAIN      70  68  93 W5        29.95F FOG
RICHMOND       PTSUNNY   85  70  60 SW13      29.87F
RALEIGH        PTSUNNY   82  71  69 S12       29.92F

$$

ANZ530>537-262000-
MARINE OBSERVATIONS

STATION/POSITION TIME  TEMP    WIND        PRES
                       AIR SEA DIR/SP/G
                 (UTC) (F)     (DEG/KT/KT) (MB)
THOMAS PT LIGHT  1900   79 72  160/ 15/ 15 1010.5F
BALT KEY BRIDGE  1848   80     120/ 13/ 15 1009.1F
COVE POINT       1848   85     280/  9/ 14 1011.1F
LEWISETTA        1848   85 73  250/ 12/ 14 1010.8F
SOLOMONS ISLAND  1848   83 71  240/ 13/ 16 1010.3F
PINEY POINT      1848          260/  5/  8   N/A

$$




USA.gov is the U.S. government's official web portal to all federal, state and local government web resources and services.